Preview of NWS' New Version of Forecast
This preview is not operational and should not be used for support decisions.

Regional Weather Roundup (RWR)

Issued by Melbourne, FL (MLB)

                            
000
ASUS42 KMLB 160811
RWRMLB
HOURLY WEATHER ROUNDUP AROUND FLORIDA
NATIONAL WEATHER SERVICE OFFICE MELBOURNE FL
400 AM EDT TUE OCT 16 2018
  
CITY           SKY/WX    TMP DP  RH WIND       PRES   REMARKS
MELBOURNE      FAIR      82  75  79 SE7       30.09F                  
FORT PIERCE    FAIR      77  74  90 CALM      30.09F                  
ORLANDO INTL   FAIR      75  73  93 CALM      30.11S                  
DAYTONA BEACH  FAIR      73  73 100 CALM      30.11F                  
VERO BEACH     LGT RAIN  78  75  90 E9        30.09F                  
$$
...ELSEWHERE ACROSS CENTRAL FLORIDA...
  
CITY           SKY/WX    TMP DP  RH WIND       PRES   REMARKS
PATRICK AFB    FAIR      81  77  88 SE10      30.09F                  
KSC            FAIR      78  74  86 CALM      30.09F                  
CAPE CANAVERAL FAIR      78  75  90 SE8       30.08F                  
ORLANDO EXEC   FAIR      76  74  93 CALM      30.11F                  
LEESBURG       FAIR      76  75  97 SE5       30.11F                  
SANFORD        FAIR      75  74  96 CALM      30.10F                  
DELAND         FAIR      73  72  94 CALM      30.11S                  
WINTER HAVEN   FAIR      76  74  93 NE5       30.11S                  
KISSIMMEE      FAIR      76  74  93 CALM      30.12S                  
OKEECHOBEE     FAIR      73  72  94 CALM      30.08F                  
TAMPA          FAIR      79  74  84 VRB3      30.09F                  
$$
...NORTHERN FLORIDA...
  
CITY           SKY/WX    TMP DP  RH WIND       PRES   REMARKS
PALM COAST     FAIR      73  72  97 CALM      30.11F                  
ST AUGUSTINE   FAIR      78  74  87 S3        30.12F                  
OCALA          FAIR      74  73  97 CALM      30.12S                  
GAINESVILLE    FAIR      74  72  93 CALM      30.13F                  
JACKSONVILLE   FAIR      73  73 100 CALM      30.10F                  
TALLAHASSEE    FOG       71  70  96 CALM      30.09F VSB 3/4          
$$
...ALONG THE SOUTHEAST COAST TO THE KEYS...
  
CITY           SKY/WX    TMP DP  RH WIND       PRES   REMARKS
STUART         FAIR      79  73  83 SE5       30.10S                  
WEST PALM BCH  FAIR      81  75  82 SE9       30.08S                  
MIAMI          FAIR      81  76  84 E13       30.06S                  
KEY WEST       FAIR      85  76  74 E18G24    30.00F                  
$$
...MARINE REPORTS...
  
STATION/POSITION TIME  TEMP    WIND        PRES    WAVE   SWELL
                       AIR SEA DIR/SP/G            HT/PER HT/PER
                 (UTC) (F)     (DEG/KT/KT) (MB)    (FT/S) (FT/S)
ST AUGUSTINE FP  0800   80 82  200/  5/  5 1019.8F
20NM E CAPE CANA 0750          130/ 10/ 12 1019.4F   3/ 9   2/ 9
TRIDENT PIER     0748   80 84  120/  5/  8 1020.5F
SEBASTIAN INLET  0745   81 82  130/ 11     1020.0S
4NM E PORT CANAV 0800      83                N/A     2/ 4
6NM NE FPR INLET 0800      83                N/A     3/ 6
SETTLEMENT PT GB 0800   81     130/  4/  5 1019.0S
$$